Location: Newark
(27.9675°N, 86.8869°E)
Time: 13:57:53
(UTC+00:00)

Altair - Pass Details

Date: 23 October 2019
Orbit: 1502 x 1682 km, 47.2° (Epoch: 17 November)

Event Time Altitude Azimuth Distance (km) Brightness Sun altitude
Rises 09:26:35 0° 312° (NW) 4,826 10.3 25.8°
Reaches altitude 10° 09:30:02 10° 320° (NW) 3,864 9.8 25.2°
Maximum altitude 09:39:08 39° 27° (NNE) 2,334 8.3 23.4°
Drops below altitude 10° 09:48:22 10° 93° (E) 3,939 9.2 21.6°
Sets 09:51:54 0° 101° (E) 4,928 9.7 20.9°
